AMX594 MMMX-MMTL

Flight info

Callsign AMX594
Flight time 1h 35m
Altitude 35000
Route NOXOS2B NOXOS DCT ALMET UT172 TEVET UT108 VER UJ24 IMUBI IMUBI1A
Aircraft B738/M-SDE2E3FGHIRWXY/LB1

Departure

Time 2026-05-07 02:17
Airport Mexico City Benito Juárez International Airport (MMMX)

Arrival

Time 2026-05-07 03:53
Airport Felipe Carrillo Puerto International Airport Tulum (MMTL)
Time Latitude Longitude Altitude Speed Heading
2026-05-07 01:04 19.42195 -99.08053 7302 ft 0 kts 30°
2026-05-07 02:03 19.42183 -99.08061 7302 ft 4 kts 20°
2026-05-07 02:04 19.42157 -99.08065 7302 ft 4 kts 350°
2026-05-07 02:04 19.42133 -99.08055 7302 ft 4 kts 314°
2026-05-07 02:04 19.42126 -99.08047 7302 ft 0 kts 301°
2026-05-07 02:09 19.42130 -99.08054 7302 ft 2 kts 301°
2026-05-07 02:09 19.42141 -99.08072 7302 ft 4 kts 301°
2026-05-07 02:09 19.42150 -99.08088 7302 ft 1 kts 302°
2026-05-07 02:09 19.42158 -99.08101 7302 ft 3 kts 302°
2026-05-07 02:10 19.42170 -99.08123 7302 ft 4 kts 301°
2026-05-07 02:10 19.42192 -99.08161 7302 ft 7 kts 301°
2026-05-07 02:10 19.42230 -99.08201 7302 ft 8 kts 341°
2026-05-07 02:10 19.42292 -99.08202 7302 ft 9 kts
2026-05-07 02:11 19.42354 -99.08221 7302 ft 9 kts 324°
2026-05-07 02:11 19.42394 -99.08274 7302 ft 9 kts 296°
2026-05-07 02:11 19.42420 -99.08336 7302 ft 9 kts 293°
2026-05-07 02:11 19.42447 -99.08403 7302 ft 11 kts 292°
2026-05-07 02:12 19.42479 -99.08484 7302 ft 13 kts 293°
2026-05-07 02:12 19.42506 -99.08570 7302 ft 9 kts 282°
2026-05-07 02:12 19.42523 -99.08635 7302 ft 10 kts 288°
2026-05-07 02:12 19.42549 -99.08701 7302 ft 10 kts 294°
2026-05-07 02:13 19.42576 -99.08769 7302 ft 11 kts 292°
2026-05-07 02:13 19.42609 -99.08853 7302 ft 13 kts 292°
2026-05-07 02:13 19.42630 -99.08904 7302 ft 2 kts 293°
2026-05-07 02:13 19.42635 -99.08917 7302 ft 2 kts 293°
2026-05-07 02:14 19.42640 -99.08929 7302 ft 2 kts 293°
2026-05-07 02:14 19.42645 -99.08941 7302 ft 2 kts 293°
2026-05-07 02:14 19.42652 -99.08960 7302 ft 4 kts 292°
2026-05-07 02:14 19.42668 -99.09000 7302 ft 8 kts 292°
2026-05-07 02:15 19.42695 -99.09053 7302 ft 9 kts 320°
2026-05-07 02:15 19.42752 -99.09054 7302 ft 9 kts 34°
2026-05-07 02:15 19.42773 -99.09024 7302 ft 0 kts 59°
2026-05-07 02:16 19.42806 -99.08965 7302 ft 34 kts 59°
2026-05-07 02:16 19.43043 -99.08543 7301 ft 98 kts 59°
2026-05-07 02:17 19.43491 -99.07747 7303 ft 151 kts 59°
2026-05-07 02:17 19.44096 -99.06648 7418 ft 187 kts 58°
2026-05-07 02:17 19.44756 -99.05441 8105 ft 194 kts 57°
2026-05-07 02:17 19.45465 -99.04208 9088 ft 200 kts 58°
2026-05-07 02:18 19.46210 -99.02908 9360 ft 218 kts 59°
2026-05-07 02:18 19.47023 -99.01470 9449 ft 236 kts 59°
2026-05-07 02:18 19.47898 -98.99912 9526 ft 255 kts 59°
2026-05-07 02:18 19.48842 -98.98227 9587 ft 276 kts 59°
2026-05-07 02:19 19.49863 -98.96404 9722 ft 293 kts 59°
2026-05-07 02:19 19.50899 -98.94556 10354 ft 296 kts 59°
2026-05-07 02:19 19.51955 -98.92672 10982 ft 299 kts 59°
2026-05-07 02:19 19.53022 -98.90762 11614 ft 302 kts 60°
2026-05-07 02:20 19.53841 -98.88689 12241 ft 306 kts 73°
2026-05-07 02:20 19.54404 -98.86509 12918 ft 308 kts 76°
2026-05-07 02:20 19.54930 -98.84293 13582 ft 312 kts 76°
2026-05-07 02:20 19.55473 -98.82049 14221 ft 315 kts 76°
2026-05-07 02:21 19.56033 -98.79828 14866 ft 316 kts 76°
2026-05-07 02:21 19.56619 -98.77569 15515 ft 319 kts 76°
2026-05-07 02:21 19.57215 -98.75295 16114 ft 321 kts 76°
2026-05-07 02:21 19.57813 -98.73002 16714 ft 324 kts 77°
2026-05-07 02:22 19.58302 -98.70634 17061 ft 337 kts 81°
2026-05-07 02:22 19.58729 -98.68116 17185 ft 355 kts 82°
2026-05-07 02:22 19.59159 -98.65480 17326 ft 372 kts 81°
2026-05-07 02:22 19.59616 -98.62721 17479 ft 386 kts 81°
2026-05-07 02:23 19.60098 -98.59893 17885 ft 391 kts 81°
2026-05-07 02:23 19.60587 -98.57082 18423 ft 393 kts 81°
2026-05-07 02:23 19.61086 -98.54217 18855 ft 396 kts 81°
2026-05-07 02:23 19.61575 -98.51321 19245 ft 399 kts 84°
2026-05-07 02:24 19.61686 -98.48370 19653 ft 401 kts 93°
2026-05-07 02:24 19.61539 -98.45406 20050 ft 404 kts 94°
2026-05-07 02:24 19.61394 -98.42413 20473 ft 407 kts 94°
2026-05-07 02:24 19.61287 -98.39436 20874 ft 410 kts 93°
2026-05-07 02:25 19.61199 -98.36388 21252 ft 414 kts 93°
2026-05-07 02:25 19.61119 -98.33324 21639 ft 417 kts 92°
2026-05-07 02:25 19.61040 -98.30234 22028 ft 420 kts 93°
2026-05-07 02:25 19.60959 -98.27124 22415 ft 423 kts 93°
2026-05-07 02:26 19.60876 -98.23978 22780 ft 426 kts 92°
2026-05-07 02:26 19.60791 -98.20825 23135 ft 430 kts 92°
2026-05-07 02:26 19.60704 -98.17647 23484 ft 433 kts 93°
2026-05-07 02:26 19.60616 -98.14475 23784 ft 436 kts 93°
2026-05-07 02:27 19.60526 -98.11248 24092 ft 438 kts 92°
2026-05-07 02:27 19.60436 -98.08009 24405 ft 440 kts 93°
2026-05-07 02:27 19.60344 -98.04754 24705 ft 442 kts 93°
2026-05-07 02:27 19.60165 -98.01488 24982 ft 444 kts 101°
2026-05-07 02:28 19.59202 -97.98390 25253 ft 443 kts 118°
2026-05-07 02:28 19.57754 -97.95502 25604 ft 443 kts 120°
2026-05-07 02:28 19.56289 -97.92663 25913 ft 445 kts 120°
2026-05-07 02:28 19.54817 -97.89760 26183 ft 447 kts 119°
2026-05-07 02:29 19.53363 -97.86828 26462 ft 450 kts 119°
2026-05-07 02:29 19.51921 -97.83872 26743 ft 452 kts 117°
2026-05-07 02:29 19.50727 -97.80773 27020 ft 456 kts 108°
2026-05-07 02:29 19.49961 -97.77544 27296 ft 458 kts 104°
2026-05-07 02:30 19.49259 -97.74239 27567 ft 460 kts 104°
2026-05-07 02:30 19.48564 -97.70914 27826 ft 462 kts 104°
2026-05-07 02:30 19.47859 -97.67578 28071 ft 465 kts 104°
2026-05-07 02:30 19.47137 -97.64224 28309 ft 467 kts 104°
2026-05-07 02:31 19.46403 -97.60864 28551 ft 468 kts 104°
2026-05-07 02:31 19.45667 -97.57525 28789 ft 470 kts 104°
2026-05-07 02:31 19.44916 -97.54142 29025 ft 472 kts 104°
2026-05-07 02:31 19.44160 -97.50746 29258 ft 474 kts 105°
2026-05-07 02:32 19.43403 -97.47346 29477 ft 476 kts 105°
2026-05-07 02:32 19.42639 -97.43917 29708 ft 477 kts 105°
2026-05-07 02:32 19.41874 -97.40488 29952 ft 478 kts 105°
2026-05-07 02:32 19.41118 -97.37093 30246 ft 477 kts 105°
2026-05-07 02:33 19.40356 -97.33681 30564 ft 476 kts 105°
2026-05-07 02:33 19.39596 -97.30273 30863 ft 475 kts 105°
2026-05-07 02:33 19.38835 -97.26870 31132 ft 474 kts 105°
2026-05-07 02:33 19.38071 -97.23459 31421 ft 474 kts 105°
2026-05-07 02:34 19.37307 -97.20047 31722 ft 473 kts 105°
2026-05-07 02:34 19.36557 -97.16701 32024 ft 472 kts 105°
2026-05-07 02:34 19.35798 -97.13314 32303 ft 472 kts 105°
2026-05-07 02:34 19.35040 -97.09938 32598 ft 471 kts 105°
2026-05-07 02:35 19.34280 -97.06558 32910 ft 471 kts 105°
2026-05-07 02:35 19.33521 -97.03184 33232 ft 470 kts 105°
2026-05-07 02:35 19.32763 -96.99824 33537 ft 469 kts 105°
2026-05-07 02:35 19.32003 -96.96459 33804 ft 468 kts 105°
2026-05-07 02:36 19.31501 -96.94237 34004 ft 467 kts 105°
2026-05-07 02:36 19.30498 -96.89797 34308 ft 468 kts 105°
2026-05-07 02:36 19.29739 -96.86442 34501 ft 469 kts 105°
2026-05-07 02:36 19.28978 -96.83084 34684 ft 468 kts 105°
2026-05-07 02:37 19.28474 -96.80858 34872 ft 467 kts 105°
2026-05-07 02:37 19.27711 -96.77493 34845 ft 471 kts 105°
2026-05-07 02:37 19.26178 -96.70739 34849 ft 470 kts 105°
2026-05-07 02:38 19.24660 -96.64064 34813 ft 464 kts 105°
2026-05-07 02:38 19.23155 -96.57457 34822 ft 464 kts 105°
2026-05-07 02:39 19.21637 -96.50806 34792 ft 463 kts 105°
2026-05-07 02:39 19.20124 -96.44188 34796 ft 463 kts 105°
2026-05-07 02:40 19.18604 -96.37547 34790 ft 464 kts 105°
2026-05-07 02:40 19.17090 -96.30947 34794 ft 464 kts 105°
2026-05-07 02:41 19.15561 -96.24293 34796 ft 465 kts 105°
2026-05-07 02:41 19.14604 -96.17574 34798 ft 467 kts 91°
2026-05-07 02:42 19.15314 -96.10716 34802 ft 469 kts 82°
2026-05-07 02:42 19.16333 -96.03916 34797 ft 470 kts 82°
2026-05-07 02:43 19.17304 -95.97073 34800 ft 470 kts 83°
2026-05-07 02:43 19.18233 -95.90230 34804 ft 470 kts 83°
2026-05-07 02:44 19.19155 -95.83379 34810 ft 470 kts 83°
2026-05-07 02:44 19.20076 -95.76550 34811 ft 470 kts 83°
2026-05-07 02:45 19.20993 -95.69732 34807 ft 469 kts 83°
2026-05-07 02:45 19.21911 -95.62883 34807 ft 469 kts 82°
2026-05-07 02:46 19.22827 -95.56030 34810 ft 469 kts 83°
2026-05-07 02:46 19.23739 -95.49220 34813 ft 470 kts 84°
2026-05-07 02:47 19.24654 -95.42342 34810 ft 471 kts 83°
2026-05-07 02:47 19.25559 -95.35511 34818 ft 471 kts 83°
2026-05-07 02:48 19.26469 -95.28628 34815 ft 472 kts 82°
2026-05-07 02:48 19.27379 -95.21740 34814 ft 472 kts 84°
2026-05-07 02:49 19.28283 -95.14860 34812 ft 471 kts 84°
2026-05-07 02:49 19.29180 -95.08026 34817 ft 471 kts 84°
2026-05-07 02:50 19.30078 -95.01152 34808 ft 471 kts 83°
2026-05-07 02:50 19.30973 -94.94272 34808 ft 470 kts 83°
2026-05-07 02:51 19.31859 -94.87454 34810 ft 470 kts 83°
2026-05-07 02:51 19.32747 -94.80589 34811 ft 470 kts 83°
2026-05-07 02:52 19.33634 -94.73728 34810 ft 470 kts 83°
2026-05-07 02:52 19.34511 -94.66906 34808 ft 470 kts 83°
2026-05-07 02:53 19.35391 -94.60047 34810 ft 470 kts 83°
2026-05-07 02:53 19.36267 -94.53176 34817 ft 470 kts 84°
2026-05-07 02:54 19.37145 -94.46317 34823 ft 470 kts 84°
2026-05-07 02:54 19.38016 -94.39449 34817 ft 470 kts 84°
2026-05-07 02:55 19.38881 -94.32617 34820 ft 470 kts 85°
2026-05-07 02:55 19.39751 -94.25732 34828 ft 470 kts 84°
2026-05-07 02:56 19.40610 -94.18906 34825 ft 470 kts 84°
2026-05-07 02:56 19.41476 -94.12023 34831 ft 470 kts 84°
2026-05-07 02:57 19.42333 -94.05176 34832 ft 470 kts 84°
2026-05-07 02:57 19.43189 -93.98304 34832 ft 470 kts 84°
2026-05-07 02:58 19.44045 -93.91432 34833 ft 470 kts 83°
2026-05-07 02:58 19.44897 -93.84549 34832 ft 470 kts 83°
2026-05-07 02:59 19.45742 -93.77710 34821 ft 470 kts 84°
2026-05-07 02:59 19.46592 -93.70817 34829 ft 470 kts 84°
2026-05-07 03:00 19.47437 -93.63939 34834 ft 470 kts 84°
2026-05-07 03:00 19.48276 -93.57093 34840 ft 470 kts 84°
2026-05-07 03:01 19.49115 -93.50207 34840 ft 471 kts 85°
2026-05-07 03:01 19.49954 -93.43312 34841 ft 471 kts 85°
2026-05-07 03:02 19.50787 -93.36448 34840 ft 471 kts 85°
2026-05-07 03:02 19.51621 -93.29548 34841 ft 471 kts 84°
2026-05-07 03:03 19.52453 -93.22650 34835 ft 471 kts 84°
2026-05-07 03:03 19.53285 -93.15755 34836 ft 471 kts 85°
2026-05-07 03:04 19.54106 -93.08891 34840 ft 471 kts 84°
2026-05-07 03:04 19.54923 -93.02003 34851 ft 470 kts 84°
2026-05-07 03:05 19.55742 -92.95105 34840 ft 471 kts 84°
2026-05-07 03:05 19.56553 -92.88259 34847 ft 470 kts 84°
2026-05-07 03:06 19.57366 -92.81363 34849 ft 470 kts 84°
2026-05-07 03:06 19.58171 -92.74504 34854 ft 470 kts 84°
2026-05-07 03:07 19.58978 -92.67616 34854 ft 470 kts 83°
2026-05-07 03:07 19.59784 -92.60733 34853 ft 469 kts 84°
2026-05-07 03:08 19.60583 -92.53865 34856 ft 469 kts 84°
2026-05-07 03:08 19.61376 -92.47029 34855 ft 469 kts 84°
2026-05-07 03:09 19.62172 -92.40147 34861 ft 469 kts 84°
2026-05-07 03:09 19.62965 -92.33263 34860 ft 469 kts 84°
2026-05-07 03:10 19.63751 -92.26417 34857 ft 469 kts 84°
2026-05-07 03:10 19.64538 -92.19541 34861 ft 469 kts 84°
2026-05-07 03:11 19.65319 -92.12692 34864 ft 469 kts 84°
2026-05-07 03:11 19.66102 -92.05806 34864 ft 469 kts 84°
2026-05-07 03:12 19.66881 -91.98924 34866 ft 470 kts 84°
2026-05-07 03:12 19.67655 -91.92073 34867 ft 470 kts 84°
2026-05-07 03:13 19.68433 -91.85169 34866 ft 470 kts 84°
2026-05-07 03:13 19.69204 -91.78318 34872 ft 470 kts 84°
2026-05-07 03:14 19.69978 -91.71414 34875 ft 470 kts 85°
2026-05-07 03:15 19.71132 -91.61058 34878 ft 470 kts 84°
2026-05-07 03:15 19.71894 -91.54195 34877 ft 470 kts 84°
2026-05-07 03:16 19.72661 -91.47285 34880 ft 470 kts 86°
2026-05-07 03:16 19.73423 -91.40383 34882 ft 470 kts 85°
2026-05-07 03:17 19.74182 -91.33485 34886 ft 470 kts 84°
2026-05-07 03:17 19.74934 -91.26623 34887 ft 470 kts 84°
2026-05-07 03:18 19.75687 -91.19709 34893 ft 471 kts 85°
2026-05-07 03:18 19.76432 -91.12841 34884 ft 471 kts 84°
2026-05-07 03:19 19.77184 -91.05929 34891 ft 471 kts 84°
2026-05-07 03:19 19.77930 -90.99012 34895 ft 471 kts 84°
2026-05-07 03:20 19.78671 -90.92102 34894 ft 470 kts 85°
2026-05-07 03:20 19.79405 -90.85229 34907 ft 470 kts 86°
2026-05-07 03:21 19.80141 -90.78309 34910 ft 470 kts 84°
2026-05-07 03:21 19.80870 -90.71431 34922 ft 470 kts 84°
2026-05-07 03:22 19.81600 -90.64517 34915 ft 471 kts 84°
2026-05-07 03:22 19.82205 -90.58768 34915 ft 470 kts 84°
2026-05-07 03:23 19.83048 -90.50740 34914 ft 470 kts 84°
2026-05-07 03:23 19.83707 -90.45001 34922 ft 470 kts 83°
2026-05-07 03:24 19.84571 -90.38116 34910 ft 470 kts 83°
2026-05-07 03:24 19.85431 -90.31232 34915 ft 469 kts 84°
2026-05-07 03:25 19.86273 -90.24364 34920 ft 468 kts 83°
2026-05-07 03:25 19.87102 -90.17538 34926 ft 468 kts 84°
2026-05-07 03:26 19.87933 -90.10674 34932 ft 468 kts 84°
2026-05-07 03:26 19.88762 -90.03807 34937 ft 468 kts 84°
2026-05-07 03:27 19.89588 -89.96944 34949 ft 468 kts 84°
2026-05-07 03:27 19.90000 -89.93511 34637 ft 472 kts 84°
2026-05-07 03:27 19.90415 -89.90048 34208 ft 470 kts 84°
2026-05-07 03:27 19.90820 -89.86656 33746 ft 467 kts 84°
2026-05-07 03:28 19.91229 -89.83235 33265 ft 463 kts 84°
2026-05-07 03:28 19.91634 -89.79841 32805 ft 460 kts 83°
2026-05-07 03:28 19.92034 -89.76482 32355 ft 456 kts 85°
2026-05-07 03:28 19.92431 -89.73139 31907 ft 453 kts 84°
2026-05-07 03:29 19.92823 -89.69830 31463 ft 450 kts 83°
2026-05-07 03:29 19.93213 -89.66539 31013 ft 448 kts 83°
2026-05-07 03:29 19.93602 -89.63262 30569 ft 445 kts 84°
2026-05-07 03:29 19.93984 -89.60041 30127 ft 443 kts 84°
2026-05-07 03:30 19.94368 -89.56793 29632 ft 440 kts 84°
2026-05-07 03:30 19.94746 -89.53572 29165 ft 436 kts 85°
2026-05-07 03:30 19.95121 -89.50390 28702 ft 432 kts 84°
2026-05-07 03:30 19.95492 -89.47231 28253 ft 428 kts 85°
2026-05-07 03:31 19.95854 -89.44141 27813 ft 425 kts 85°
2026-05-07 03:31 19.96216 -89.41032 27377 ft 421 kts 83°
2026-05-07 03:31 19.96577 -89.37948 26946 ft 417 kts 84°
2026-05-07 03:31 19.96932 -89.34895 26512 ft 414 kts 85°
2026-05-07 03:32 19.97284 -89.31865 26082 ft 411 kts 84°
2026-05-07 03:32 19.97635 -89.28851 25632 ft 409 kts 84°
2026-05-07 03:32 19.97978 -89.25900 25202 ft 405 kts 84°
2026-05-07 03:32 19.98321 -89.22954 24748 ft 397 kts 84°
2026-05-07 03:33 19.98655 -89.20078 24349 ft 387 kts 84°
2026-05-07 03:33 19.98982 -89.17262 23949 ft 380 kts 84°
2026-05-07 03:33 19.99304 -89.14473 23537 ft 379 kts 84°
2026-05-07 03:33 19.99621 -89.11723 23074 ft 378 kts 84°
2026-05-07 03:34 19.99943 -89.08925 22650 ft 375 kts 84°
2026-05-07 03:34 20.00255 -89.06217 22244 ft 373 kts 84°
2026-05-07 03:34 20.00568 -89.03490 21842 ft 370 kts 84°
2026-05-07 03:34 20.00880 -89.00776 21439 ft 367 kts 84°
2026-05-07 03:35 20.01189 -88.98083 21043 ft 365 kts 84°
2026-05-07 03:35 20.01494 -88.95412 20652 ft 362 kts 84°
2026-05-07 03:35 20.01794 -88.92794 20267 ft 360 kts 84°
2026-05-07 03:35 20.02095 -88.90156 19885 ft 358 kts 84°
2026-05-07 03:36 20.02393 -88.87538 19484 ft 356 kts 84°
2026-05-07 03:36 20.02691 -88.84924 19070 ft 355 kts 83°
2026-05-07 03:36 20.02988 -88.82313 18664 ft 354 kts 83°
2026-05-07 03:36 20.03284 -88.79707 18275 ft 353 kts 83°
2026-05-07 03:37 20.03574 -88.77150 17849 ft 351 kts 83°
2026-05-07 03:37 20.03866 -88.74578 17447 ft 348 kts 83°
2026-05-07 03:37 20.04155 -88.72026 17048 ft 346 kts 83°
2026-05-07 03:37 20.04441 -88.69495 16673 ft 343 kts 83°
2026-05-07 03:38 20.04722 -88.67007 16291 ft 341 kts 83°
2026-05-07 03:38 20.05118 -88.64528 15898 ft 340 kts 72°
2026-05-07 03:38 20.06103 -88.62250 15556 ft 337 kts 63°
2026-05-07 03:38 20.07209 -88.60052 15180 ft 336 kts 63°
2026-05-07 03:39 20.08316 -88.57868 14804 ft 334 kts 63°
2026-05-07 03:39 20.09413 -88.55692 14433 ft 333 kts 63°
2026-05-07 03:39 20.10503 -88.53509 14062 ft 332 kts 63°
2026-05-07 03:39 20.11580 -88.51336 13674 ft 331 kts 63°
2026-05-07 03:40 20.12638 -88.49193 13288 ft 330 kts 63°
2026-05-07 03:40 20.13701 -88.47034 12916 ft 327 kts 63°
2026-05-07 03:40 20.14754 -88.44890 12549 ft 325 kts 63°
2026-05-07 03:40 20.15793 -88.42774 12187 ft 323 kts 64°
2026-05-07 03:41 20.16835 -88.40647 11658 ft 328 kts 63°
2026-05-07 03:41 20.17883 -88.38510 11412 ft 322 kts 64°
2026-05-07 03:41 20.18917 -88.36401 11067 ft 320 kts 64°
2026-05-07 03:41 20.19931 -88.34332 10740 ft 317 kts 64°
2026-05-07 03:42 20.20951 -88.32252 10406 ft 316 kts 64°
2026-05-07 03:42 20.21830 -88.30124 10063 ft 313 kts 73°
2026-05-07 03:42 20.22420 -88.27912 9883 ft 305 kts 77°
2026-05-07 03:42 20.22914 -88.25773 9837 ft 289 kts 78°
2026-05-07 03:43 20.23382 -88.23716 9305 ft 288 kts 78°
2026-05-07 03:43 20.23859 -88.21655 8928 ft 282 kts 77°
2026-05-07 03:43 20.24338 -88.19633 8441 ft 281 kts 77°
2026-05-07 03:43 20.24813 -88.17653 8103 ft 276 kts 77°
2026-05-07 03:44 20.25296 -88.15663 7807 ft 279 kts 77°
2026-05-07 03:44 20.25788 -88.13646 7479 ft 282 kts 77°
2026-05-07 03:44 20.26284 -88.11621 7167 ft 282 kts 77°
2026-05-07 03:44 20.26780 -88.09602 6843 ft 283 kts 77°
2026-05-07 03:45 20.27278 -88.07575 6526 ft 282 kts 77°
2026-05-07 03:45 20.27777 -88.05547 6196 ft 282 kts 77°
2026-05-07 03:45 20.28276 -88.03524 5871 ft 279 kts 78°
2026-05-07 03:45 20.28756 -88.01572 5550 ft 272 kts 78°
2026-05-07 03:46 20.29231 -87.99645 5254 ft 264 kts 78°
2026-05-07 03:46 20.29692 -87.97774 4969 ft 257 kts 79°
2026-05-07 03:46 20.30139 -87.95954 4688 ft 251 kts 79°
2026-05-07 03:46 20.30577 -87.94173 4401 ft 244 kts 79°
2026-05-07 03:47 20.30910 -87.92430 4109 ft 234 kts 95°
2026-05-07 03:47 20.30521 -87.90814 3868 ft 221 kts 117°
2026-05-07 03:47 20.29822 -87.89418 3666 ft 211 kts 121°
2026-05-07 03:47 20.29103 -87.88103 3427 ft 200 kts 121°
2026-05-07 03:48 20.28420 -87.86850 3183 ft 190 kts 121°
2026-05-07 03:48 20.27767 -87.85644 2971 ft 185 kts 121°
2026-05-07 03:48 20.27133 -87.84470 2766 ft 181 kts 121°
2026-05-07 03:48 20.26512 -87.83314 2673 ft 176 kts 121°
2026-05-07 03:49 20.25902 -87.82182 2704 ft 179 kts 121°
2026-05-07 03:49 20.25285 -87.81035 2707 ft 182 kts 121°
2026-05-07 03:49 20.24645 -87.79846 2549 ft 186 kts 121°
2026-05-07 03:49 20.24008 -87.78660 2330 ft 182 kts 121°
2026-05-07 03:50 20.23384 -87.77500 2095 ft 178 kts 121°
2026-05-07 03:50 20.22783 -87.76382 1855 ft 168 kts 121°
2026-05-07 03:50 20.22230 -87.75352 1683 ft 152 kts 121°
2026-05-07 03:50 20.21729 -87.74420 1466 ft 141 kts 120°
2026-05-07 03:51 20.21243 -87.73517 1287 ft 141 kts 120°
2026-05-07 03:51 20.20750 -87.72600 1111 ft 145 kts 121°
2026-05-07 03:51 20.20246 -87.71664 932 ft 145 kts 120°
2026-05-07 03:51 20.19753 -87.70753 741 ft 144 kts 119°
2026-05-07 03:52 20.19254 -87.69818 581 ft 146 kts 118°
2026-05-07 03:52 20.18745 -87.68875 402 ft 145 kts 117°
2026-05-07 03:52 20.18248 -87.67946 211 ft 143 kts 116°
2026-05-07 03:52 20.17769 -87.67052 87 ft 130 kts 116°
2026-05-07 03:53 20.17383 -87.66333 81 ft 90 kts 120°
2026-05-07 03:53 20.17150 -87.65905 84 ft 35 kts 120°
2026-05-07 03:53 20.17048 -87.65746 86 ft 19 kts 130°
2026-05-07 03:53 20.16991 -87.65692 88 ft 6 kts 144°
2026-05-07 03:54 20.16963 -87.65670 85 ft 5 kts 144°
2026-05-07 03:54 20.16934 -87.65651 86 ft 5 kts 151°
2026-05-07 03:54 20.16903 -87.65636 87 ft 5 kts 167°
2026-05-07 03:54 20.16868 -87.65645 88 ft 6 kts 216°
2026-05-07 03:55 20.16858 -87.65687 84 ft 4 kts 281°
2026-05-07 03:55 20.16861 -87.65707 85 ft 4 kts 277°
2026-05-07 03:55 20.16851 -87.65740 84 ft 4 kts 232°
2026-05-07 03:55 20.16836 -87.65751 87 ft 3 kts 202°
2026-05-07 03:56 20.16809 -87.65744 84 ft 4 kts 143°
2026-05-07 03:56 20.16779 -87.65743 84 ft 5 kts 202°
2026-05-07 03:56 20.16741 -87.65766 87 ft 7 kts 211°
2026-05-07 03:56 20.16721 -87.65778 84 ft 3 kts 209°
2026-05-07 03:57 20.16706 -87.65787 86 ft 2 kts 210°
2026-05-07 03:57 20.16699 -87.65791 86 ft 0 kts 210°